San Jose, CA

1:51 AM PDT on October 24, 2017 (GMT -0700)
San Jose International

Weather History for KSJC - August, 2014

Change the Weather History Date:

Sunday, August 3, 2014

  Actual Average Record
Temperature  
Mean Temperature 66 °F 70 °F  
Max Temperature 74 °F 82 °F 103 °F (1998)
Min Temperature 58 °F 58 °F 46 °F (1896)
Degree Days  
Heating Degree Days 0 0  
Month to date heating degree days 0 0  
Since 1 June heating degree days 9 28  
Since 1 July heating degree days 0 4  
Cooling Degree Days 1 5  
Month to date cooling degree days 10 15  
Year to date cooling degree days 363 338  
Since 1 June cooling degree days 272 275  
Growing Degree Days 15 (Base 50)    
Moisture  
Dew Point 56 °F    
Average Humidity 75    
Maximum Humidity 93    
Minimum Humidity 57    
Precipitation  
Precipitation 0.00 in 0.00 in 0.06 in (1999)
Month to date precipitation 0.00 0.00  
Year to date precipitation 4.79 10.53  
Since 1 July precipitation T  
Sea Level Pressure  
Sea Level Pressure 29.94 in    
Wind  
Wind Speed 7 mph (NNW)    
Max Wind Speed 16 mph    
Max Gust Speed 21 mph    
Visibility 10 miles    
Events      
T = Trace of Precipitation, MM = Missing Value Source: NWS Daily Summary

Daily Weather History Graph

Daily Weather History Graph

Search for Another Location

Airport or City:

Trip Planner

Search our weather history database for the weather conditions in past years. The results will help you decide how hot, cold, wet, or windy it might be!

Date:

Astronomy

Aug. 03, 2014 Rise Set
Actual Time 6:13 AM PDT 8:13 PM PDT
Civil Twilight 5:45 AM PDT 8:41 PM PDT
Nautical Twilight 5:10 AM PDT 9:16 PM PDT
Astronomical Twilight 4:32 AM PDT 9:54 PM PDT
Moon 1:29 PM PDT (8/3) No Moon Set
Length of Visible Light 14h 56m
Length of Day
13h 59m
Waxing Crescent, 48% of the Moon is Illuminated
Aug 3
Waxing Crescent
Aug 3
First Quarter
Aug 10
Full
Aug 17
Last Quarter
Aug 25
New

Hourly Weather History & Observations

Time (PDT) Temp. Dew Point Humidity Pressure Visibility Wind Dir Wind Speed Gust Speed Precip Events Conditions
12:08 AM 60.8 °F 57.2 °F 88% 29.94 in 10.0 mi WNW 4.6 mph - N/A   Mostly Cloudy
12:53 AM 60.8 °F 57.2 °F 88% 29.94 in 10.0 mi Calm Calm - N/A   Overcast
1:53 AM 61.0 °F 55.9 °F 83% 29.94 in 10.0 mi Calm Calm - N/A   Mostly Cloudy
2:00 AM 60.8 °F 55.4 °F 82% 29.94 in 10.0 mi East 3.5 mph - N/A   Scattered Clouds
2:53 AM 59.0 °F 55.0 °F 87% 29.93 in 10.0 mi ESE 10.4 mph - N/A   Clear
3:53 AM 57.9 °F 55.0 °F 90% 29.93 in 10.0 mi ESE 10.4 mph - N/A   Clear
4:31 AM 57.2 °F 55.4 °F 94% 29.94 in 10.0 mi SE 9.2 mph - N/A   Mostly Cloudy
4:53 AM 57.9 °F 55.0 °F 90% 29.94 in 10.0 mi ESE 8.1 mph - N/A   Scattered Clouds
5:53 AM 57.9 °F 55.0 °F 90% 29.94 in 10.0 mi SE 9.2 mph - N/A   Mostly Cloudy
6:35 AM 57.2 °F 55.4 °F 94% 29.96 in 10.0 mi SE 6.9 mph - N/A   Overcast
6:53 AM 57.9 °F 55.0 °F 90% 29.95 in 10.0 mi SE 5.8 mph - N/A   Overcast
7:53 AM 59.0 °F 55.0 °F 87% 29.97 in 10.0 mi SE 6.9 mph - N/A   Overcast
8:53 AM 59.0 °F 55.0 °F 87% 29.97 in 10.0 mi East 6.9 mph - N/A   Overcast
9:27 AM 62.6 °F 55.4 °F 77% 29.97 in 10.0 mi SSE 6.9 mph - N/A   Mostly Cloudy
9:53 AM 64.0 °F 55.9 °F 75% 29.97 in 10.0 mi Calm Calm - N/A   Mostly Cloudy
10:53 AM 68.0 °F 55.9 °F 65% 29.96 in 10.0 mi WNW 5.8 mph - N/A   Overcast
11:53 AM 70.0 °F 57.0 °F 63% 29.95 in 10.0 mi NW 6.9 mph - N/A   Overcast
12:53 PM 71.1 °F 55.9 °F 59% 29.95 in 10.0 mi Calm Calm - N/A   Overcast
1:53 PM 73.9 °F 57.9 °F 57% 29.94 in 10.0 mi WNW 9.2 mph - N/A   Mostly Cloudy
2:53 PM 73.0 °F 57.9 °F 59% 29.93 in 10.0 mi WNW 11.5 mph - N/A   Mostly Cloudy
3:53 PM 73.9 °F 57.9 °F 57% 29.91 in 10.0 mi NW 11.5 mph - N/A   Mostly Cloudy
4:53 PM 71.1 °F 57.0 °F 61% 29.91 in 10.0 mi NW 13.8 mph - N/A   Mostly Cloudy
5:53 PM 69.1 °F 57.0 °F 65% 29.91 in 10.0 mi WNW 11.5 mph - N/A   Mostly Cloudy
6:53 PM 66.2 °F 57.2 °F 73% 29.91 in 10.0 mi NW 13.8 mph - N/A   Mostly Cloudy
7:53 PM 64.9 °F 55.9 °F 73% 29.93 in 10.0 mi NNW 10.4 mph - N/A   Mostly Cloudy
8:53 PM 63.0 °F 55.9 °F 78% 29.94 in 10.0 mi NNW 6.9 mph - N/A   Mostly Cloudy
9:53 PM 60.8 °F 55.4 °F 82% 29.95 in 10.0 mi NW 6.9 mph - N/A   Mostly Cloudy
10:53 PM 61.0 °F 55.0 °F 81% 29.95 in 10.0 mi NNW 5.8 mph - N/A   Scattered Clouds
11:53 PM 60.1 °F 55.0 °F 83% 29.96 in 10.0 mi Calm Calm - N/A   Partly Cloudy